User: anonymous   Login
Location: Unspecified
(0.0000°N, 0.0000°E)
Time: 22:34:19
(UTC+00:00)
Language:

Okean 2 - Orbit

View from above orbital plane
View from above orbital plane
View from above satellite
View from above satellite

Ground track
Ground track

The orbit data is extracted from the following two-line orbital elements,

1 20510U 90018A   18202.92391976 +.00000308 +00000-0 +22976-4 0  9996
2 20510 082.5171 147.5527 0013858 073.7906 348.1038 14.99174972520212
Epoch (UTC): 21 July 2018 22:10:26
Eccentricity: 0.0013858
inclination: 82.5171°
perigee height: 560 km
apogee height: 579 km
right ascension of ascending node: 147.5527°
argument of perigee: 73.7906°
revolutions per day: 14.99174972
mean anomaly at epoch: 348.1038°
orbit number at epoch: 52021

The dashed part of the orbit path shows where the satellite is in the earth's shadow,  

DLR